#datetime,building,power
2023-06-15T00:00:00,75s,1.32
2023-06-15T00:01:00,75s,1.34
2023-06-15T00:02:00,75s,1.41
2023-06-15T00:03:00,75s,1.90
2023-06-15T00:04:00,75s,1.49
2023-06-15T00:05:00,75s,1.44
2023-06-15T00:06:00,75s,1.45
2023-06-15T00:07:00,75s,1.36
2023-06-15T00:08:00,75s,1.36
2023-06-15T00:09:00,75s,1.43
2023-06-15T00:10:00,75s,1.31
2023-06-15T00:11:00,75s,1.31
2023-06-15T00:12:00,75s,1.31
2023-06-15T00:13:00,75s,1.30
2023-06-15T00:14:00,75s,1.38
2023-06-15T00:15:00,75s,1.40
2023-06-15T00:16:00,75s,1.86
2023-06-15T00:17:00,75s,1.38
2023-06-15T00:18:00,75s,1.30
2023-06-15T00:19:00,75s,1.30
2023-06-15T00:20:00,75s,1.36
2023-06-15T00:21:00,75s,1.30
2023-06-15T00:22:00,75s,1.31
2023-06-15T00:23:00,75s,1.32
2023-06-15T00:24:00,75s,1.31
2023-06-15T00:25:00,75s,1.39
2023-06-15T00:26:00,75s,1.38
2023-06-15T00:27:00,75s,1.44
2023-06-15T00:28:00,75s,1.43
2023-06-15T00:29:00,75s,1.80
2023-06-15T00:30:00,75s,1.48
2023-06-15T00:31:00,75s,1.45
2023-06-15T00:32:00,75s,1.43
2023-06-15T00:33:00,75s,1.44
2023-06-15T00:34:00,75s,1.46
2023-06-15T00:35:00,75s,1.39
2023-06-15T00:36:00,75s,1.46
2023-06-15T00:37:00,75s,1.39
2023-06-15T00:38:00,75s,1.55
2023-06-15T00:39:00,75s,1.44
2023-06-15T00:40:00,75s,1.45
2023-06-15T00:41:00,75s,1.45
2023-06-15T00:42:00,75s,1.48
2023-06-15T00:43:00,75s,1.36
2023-06-15T00:44:00,75s,1.32
2023-06-15T00:45:00,75s,1.30
2023-06-15T00:46:00,75s,1.30
2023-06-15T00:47:00,75s,1.31
2023-06-15T00:48:00,75s,1.32
2023-06-15T00:49:00,75s,1.31
2023-06-15T00:50:00,75s,1.39
2023-06-15T00:51:00,75s,1.40
2023-06-15T00:52:00,75s,1.28
2023-06-15T00:53:00,75s,1.19
2023-06-15T00:54:00,75s,1.19
2023-06-15T00:55:00,75s,1.12
2023-06-15T00:56:00,75s,1.12
2023-06-15T00:57:00,75s,1.12
2023-06-15T00:58:00,75s,1.24
2023-06-15T00:59:00,75s,1.21
2023-06-15T01:00:00,75s,1.21
2023-06-15T01:01:00,75s,1.21
2023-06-15T01:02:00,75s,1.27
2023-06-15T01:03:00,75s,1.29
2023-06-15T01:04:00,75s,1.28
2023-06-15T01:05:00,75s,1.26
2023-06-15T01:06:00,75s,1.34
2023-06-15T01:07:00,75s,1.34
2023-06-15T01:08:00,75s,1.40
2023-06-15T01:09:00,75s,1.25
2023-06-15T01:10:00,75s,1.25
2023-06-15T01:11:00,75s,1.18
2023-06-15T01:12:00,75s,1.25
2023-06-15T01:13:00,75s,1.23
2023-06-15T01:14:00,75s,1.31
2023-06-15T01:15:00,75s,1.29
2023-06-15T01:16:00,75s,1.39
2023-06-15T01:17:00,75s,1.39
2023-06-15T01:18:00,75s,1.38
2023-06-15T01:19:00,75s,1.46
2023-06-15T01:20:00,75s,1.46
2023-06-15T01:21:00,75s,1.61
2023-06-15T01:22:00,75s,1.37
2023-06-15T01:23:00,75s,1.37
2023-06-15T01:24:00,75s,1.39
2023-06-15T01:25:00,75s,1.45
2023-06-15T01:26:00,75s,1.45
2023-06-15T01:27:00,75s,1.38
2023-06-15T01:28:00,75s,1.47
2023-06-15T01:29:00,75s,1.46
2023-06-15T01:30:00,75s,1.48
2023-06-15T01:31:00,75s,1.54
2023-06-15T01:32:00,75s,1.53
2023-06-15T01:33:00,75s,1.55
2023-06-15T01:34:00,75s,1.45
2023-06-15T01:35:00,75s,1.46
2023-06-15T01:36:00,75s,1.46
2023-06-15T01:37:00,75s,1.35
2023-06-15T01:38:00,75s,1.35
2023-06-15T01:39:00,75s,1.43
2023-06-15T01:40:00,75s,1.43
2023-06-15T01:41:00,75s,1.37
2023-06-15T01:42:00,75s,1.43
2023-06-15T01:43:00,75s,1.45
2023-06-15T01:44:00,75s,1.34
2023-06-15T01:45:00,75s,1.26
2023-06-15T01:46:00,75s,1.26
2023-06-15T01:47:00,75s,1.26
2023-06-15T01:48:00,75s,1.50
2023-06-15T01:49:00,75s,1.26
2023-06-15T01:50:00,75s,1.28
2023-06-15T01:51:00,75s,1.29
2023-06-15T01:52:00,75s,1.37
2023-06-15T01:53:00,75s,1.33
2023-06-15T01:54:00,75s,1.43
2023-06-15T01:55:00,75s,1.34
2023-06-15T01:56:00,75s,1.34
2023-06-15T01:57:00,75s,1.36
2023-06-15T01:58:00,75s,1.36
2023-06-15T01:59:00,75s,1.36
2023-06-15T02:00:00,75s,1.36
2023-06-15T02:01:00,75s,1.89
2023-06-15T02:02:00,75s,1.35
2023-06-15T02:03:00,75s,1.36
2023-06-15T02:04:00,75s,1.45
2023-06-15T02:05:00,75s,1.52
2023-06-15T02:06:00,75s,1.42
2023-06-15T02:07:00,75s,1.34
2023-06-15T02:08:00,75s,1.31
2023-06-15T02:09:00,75s,1.27
2023-06-15T02:10:00,75s,1.27
2023-06-15T02:11:00,75s,1.26
2023-06-15T02:12:00,75s,1.22
2023-06-15T02:13:00,75s,1.23
2023-06-15T02:14:00,75s,1.23
2023-06-15T02:15:00,75s,1.23
2023-06-15T02:16:00,75s,1.38
2023-06-15T02:17:00,75s,1.40
2023-06-15T02:18:00,75s,10.62
2023-06-15T02:19:00,75s,10.35
2023-06-15T02:20:00,75s,10.31
2023-06-15T02:21:00,75s,10.22
2023-06-15T02:22:00,75s,1.25
2023-06-15T02:23:00,75s,1.25
2023-06-15T02:24:00,75s,1.33
2023-06-15T02:25:00,75s,1.27
2023-06-15T02:26:00,75s,1.40
2023-06-15T02:27:00,75s,1.82
2023-06-15T02:28:00,75s,1.51
2023-06-15T02:29:00,75s,1.50
2023-06-15T02:30:00,75s,1.36
2023-06-15T02:31:00,75s,1.34
2023-06-15T02:32:00,75s,1.35
2023-06-15T02:33:00,75s,1.35
2023-06-15T02:34:00,75s,1.35
2023-06-15T02:35:00,75s,1.24
2023-06-15T02:36:00,75s,1.25
2023-06-15T02:37:00,75s,1.24
2023-06-15T02:38:00,75s,1.24
2023-06-15T02:39:00,75s,1.32
2023-06-15T02:40:00,75s,1.44
2023-06-15T02:41:00,75s,1.32
2023-06-15T02:42:00,75s,1.33
2023-06-15T02:43:00,75s,1.39
2023-06-15T02:44:00,75s,1.37
2023-06-15T02:45:00,75s,1.30
2023-06-15T02:46:00,75s,1.29
2023-06-15T02:47:00,75s,1.29
2023-06-15T02:48:00,75s,1.28
2023-06-15T02:49:00,75s,1.30
2023-06-15T02:50:00,75s,1.28
2023-06-15T02:51:00,75s,1.35
2023-06-15T02:52:00,75s,1.34
2023-06-15T02:53:00,75s,1.34
2023-06-15T02:54:00,75s,1.26
2023-06-15T02:55:00,75s,1.36
2023-06-15T02:56:00,75s,1.36
2023-06-15T02:57:00,75s,1.37
2023-06-15T02:58:00,75s,1.44
2023-06-15T02:59:00,75s,1.39
2023-06-15T03:00:00,75s,1.34
2023-06-15T03:01:00,75s,1.32
2023-06-15T03:02:00,75s,1.31
2023-06-15T03:03:00,75s,1.27
2023-06-15T03:04:00,75s,1.24
2023-06-15T03:05:00,75s,1.25
2023-06-15T03:06:00,75s,1.18
2023-06-15T03:07:00,75s,1.17
2023-06-15T03:08:00,75s,1.17
2023-06-15T03:09:00,75s,1.17
2023-06-15T03:10:00,75s,1.25
2023-06-15T03:11:00,75s,1.25
2023-06-15T03:12:00,75s,1.25
2023-06-15T03:13:00,75s,1.18
2023-06-15T03:14:00,75s,1.18
2023-06-15T03:15:00,75s,1.17
2023-06-15T03:16:00,75s,1.19
2023-06-15T03:17:00,75s,1.17
2023-06-15T03:18:00,75s,1.17
2023-06-15T03:19:00,75s,1.25
2023-06-15T03:20:00,75s,1.69
2023-06-15T03:21:00,75s,1.24
2023-06-15T03:22:00,75s,1.24
2023-06-15T03:23:00,75s,1.24
2023-06-15T03:24:00,75s,1.35
2023-06-15T03:25:00,75s,1.27
2023-06-15T03:26:00,75s,1.28
2023-06-15T03:27:00,75s,1.27
2023-06-15T03:28:00,75s,1.27
2023-06-15T03:29:00,75s,1.34
2023-06-15T03:30:00,75s,1.42
2023-06-15T03:31:00,75s,1.43
2023-06-15T03:32:00,75s,1.41
2023-06-15T03:33:00,75s,1.74
2023-06-15T03:34:00,75s,1.49
2023-06-15T03:35:00,75s,1.44
2023-06-15T03:36:00,75s,1.36
2023-06-15T03:37:00,75s,1.44
2023-06-15T03:38:00,75s,1.44
2023-06-15T03:39:00,75s,1.36
2023-06-15T03:40:00,75s,1.36
2023-06-15T03:41:00,75s,1.35
2023-06-15T03:42:00,75s,1.35
2023-06-15T03:43:00,75s,1.35
2023-06-15T03:44:00,75s,1.35
2023-06-15T03:45:00,75s,1.43
2023-06-15T03:46:00,75s,1.43
2023-06-15T03:47:00,75s,1.43
2023-06-15T03:48:00,75s,1.35
2023-06-15T03:49:00,75s,1.36
2023-06-15T03:50:00,75s,1.35
2023-06-15T03:51:00,75s,1.42
2023-06-15T03:52:00,75s,1.44
2023-06-15T03:53:00,75s,1.48
2023-06-15T03:54:00,75s,1.40
2023-06-15T03:55:00,75s,1.41
2023-06-15T03:56:00,75s,1.48
2023-06-15T03:57:00,75s,1.40
2023-06-15T03:58:00,75s,1.40
2023-06-15T03:59:00,75s,1.33
2023-06-15T04:00:00,75s,1.31
2023-06-15T04:01:00,75s,1.33
2023-06-15T04:02:00,75s,1.22
2023-06-15T04:03:00,75s,1.22
2023-06-15T04:04:00,75s,1.30
2023-06-15T04:05:00,75s,1.30
2023-06-15T04:06:00,75s,1.30
2023-06-15T04:07:00,75s,1.29
2023-06-15T04:08:00,75s,1.35
2023-06-15T04:09:00,75s,1.30
2023-06-15T04:10:00,75s,1.17
2023-06-15T04:11:00,75s,1.16
2023-06-15T04:12:00,75s,1.16
2023-06-15T04:13:00,75s,1.17
2023-06-15T04:14:00,75s,1.16
2023-06-15T04:15:00,75s,1.18
2023-06-15T04:16:00,75s,1.17
2023-06-15T04:17:00,75s,1.25
2023-06-15T04:18:00,75s,1.24
2023-06-15T04:19:00,75s,1.16
2023-06-15T04:20:00,75s,1.24
2023-06-15T04:21:00,75s,1.25
2023-06-15T04:22:00,75s,1.34
2023-06-15T04:23:00,75s,1.31
2023-06-15T04:24:00,75s,1.32
2023-06-15T04:25:00,75s,1.31
2023-06-15T04:26:00,75s,1.75
2023-06-15T04:27:00,75s,1.31
2023-06-15T04:28:00,75s,1.30
2023-06-15T04:29:00,75s,1.40
2023-06-15T04:30:00,75s,1.46
2023-06-15T04:31:00,75s,1.33
2023-06-15T04:32:00,75s,1.23
2023-06-15T04:33:00,75s,1.24
2023-06-15T04:34:00,75s,1.24
2023-06-15T04:35:00,75s,1.23
2023-06-15T04:36:00,75s,1.23
2023-06-15T04:37:00,75s,1.46
2023-06-15T04:38:00,75s,1.43
2023-06-15T04:39:00,75s,1.63
2023-06-15T04:40:00,75s,1.35
2023-06-15T04:41:00,75s,1.38
2023-06-15T04:42:00,75s,1.39
2023-06-15T04:43:00,75s,1.32
2023-06-15T04:44:00,75s,1.30
2023-06-15T04:45:00,75s,1.30
2023-06-15T04:46:00,75s,1.29
2023-06-15T04:47:00,75s,1.30
2023-06-15T04:48:00,75s,1.30
2023-06-15T04:49:00,75s,1.31
2023-06-15T04:50:00,75s,1.38
2023-06-15T04:51:00,75s,1.43
2023-06-15T04:52:00,75s,1.50
2023-06-15T04:53:00,75s,1.45
2023-06-15T04:54:00,75s,1.44
2023-06-15T04:55:00,75s,1.36
2023-06-15T04:56:00,75s,1.35
2023-06-15T04:57:00,75s,1.35
2023-06-15T04:58:00,75s,1.36
2023-06-15T04:59:00,75s,1.34
2023-06-15T05:00:00,75s,1.25
2023-06-15T05:01:00,75s,1.26
2023-06-15T05:02:00,75s,1.34
2023-06-15T05:03:00,75s,1.32
2023-06-15T05:04:00,75s,1.46
2023-06-15T05:05:00,75s,1.18
2023-06-15T05:06:00,75s,1.19
2023-06-15T05:07:00,75s,1.18
2023-06-15T05:08:00,75s,1.16
2023-06-15T05:09:00,75s,1.18
2023-06-15T05:10:00,75s,1.26
2023-06-15T05:11:00,75s,1.25
2023-06-15T05:12:00,75s,1.23
2023-06-15T05:13:00,75s,1.22
2023-06-15T05:14:00,75s,1.30
2023-06-15T05:15:00,75s,1.31
2023-06-15T05:16:00,75s,1.89
2023-06-15T05:17:00,75s,1.28
2023-06-15T05:18:00,75s,1.27
2023-06-15T05:19:00,75s,1.28
2023-06-15T05:20:00,75s,1.70
2023-06-15T05:21:00,75s,1.38
2023-06-15T05:22:00,75s,1.37
2023-06-15T05:23:00,75s,1.37
2023-06-15T05:24:00,75s,1.30
2023-06-15T05:25:00,75s,1.31
2023-06-15T05:26:00,75s,1.48
2023-06-15T05:27:00,75s,1.47
2023-06-15T05:28:00,75s,1.84
2023-06-15T05:29:00,75s,1.31
2023-06-15T05:30:00,75s,1.17
2023-06-15T05:31:00,75s,1.19
2023-06-15T05:32:00,75s,1.17
2023-06-15T05:33:00,75s,1.18
2023-06-15T05:34:00,75s,1.17
2023-06-15T05:35:00,75s,1.19
2023-06-15T05:36:00,75s,1.19
2023-06-15T05:37:00,75s,1.26
2023-06-15T05:38:00,75s,1.25
2023-06-15T05:39:00,75s,1.34
2023-06-15T05:40:00,75s,1.48
2023-06-15T05:41:00,75s,1.23
2023-06-15T05:42:00,75s,1.18
2023-06-15T05:43:00,75s,1.24
2023-06-15T05:44:00,75s,1.25
2023-06-15T05:45:00,75s,1.26
2023-06-15T05:46:00,75s,1.26
2023-06-15T05:47:00,75s,1.25
2023-06-15T05:48:00,75s,1.32
2023-06-15T05:49:00,75s,1.31
2023-06-15T05:50:00,75s,1.42
2023-06-15T05:51:00,75s,1.42
2023-06-15T05:52:00,75s,1.42
2023-06-15T05:53:00,75s,1.43
2023-06-15T05:54:00,75s,1.33
2023-06-15T05:55:00,75s,1.29
2023-06-15T05:56:00,75s,1.29
2023-06-15T05:57:00,75s,1.28
2023-06-15T05:58:00,75s,1.31
2023-06-15T05:59:00,75s,1.20
2023-06-15T06:00:00,75s,1.31
2023-06-15T06:01:00,75s,2.87
2023-06-15T06:02:00,75s,3.77
2023-06-15T06:03:00,75s,3.85
2023-06-15T06:04:00,75s,3.37
2023-06-15T06:05:00,75s,3.27
2023-06-15T06:06:00,75s,3.30
2023-06-15T06:07:00,75s,3.30
2023-06-15T06:08:00,75s,3.15
2023-06-15T06:09:00,75s,3.07
2023-06-15T06:10:00,75s,3.00
2023-06-15T06:11:00,75s,13.10
2023-06-15T06:12:00,75s,13.07
2023-06-15T06:13:00,75s,13.03
2023-06-15T06:14:00,75s,13.24
2023-06-15T06:15:00,75s,13.20
2023-06-15T06:16:00,75s,13.44
2023-06-15T06:17:00,75s,13.09
2023-06-15T06:18:00,75s,12.93
2023-06-15T06:19:00,75s,13.01
2023-06-15T06:20:00,75s,13.03
2023-06-15T06:21:00,75s,13.03
2023-06-15T06:22:00,75s,13.11
2023-06-15T06:23:00,75s,13.08
2023-06-15T06:24:00,75s,13.07
2023-06-15T06:25:00,75s,13.08
2023-06-15T06:26:00,75s,13.26
2023-06-15T06:27:00,75s,13.18
2023-06-15T06:28:00,75s,13.07
2023-06-15T06:29:00,75s,13.02
2023-06-15T06:30:00,75s,13.12
2023-06-15T06:31:00,75s,2.93
2023-06-15T06:32:00,75s,3.17
2023-06-15T06:33:00,75s,3.11
2023-06-15T06:34:00,75s,2.87
2023-06-15T06:35:00,75s,2.85
2023-06-15T06:36:00,75s,2.85
2023-06-15T06:37:00,75s,2.88
2023-06-15T06:38:00,75s,2.86
2023-06-15T06:39:00,75s,2.94
2023-06-15T06:40:00,75s,2.94
2023-06-15T06:41:00,75s,2.85
2023-06-15T06:42:00,75s,13.13
2023-06-15T06:43:00,75s,13.11
2023-06-15T06:44:00,75s,13.11
2023-06-15T06:45:00,75s,13.05
2023-06-15T06:46:00,75s,13.03
2023-06-15T06:47:00,75s,12.98
2023-06-15T06:48:00,75s,13.15
2023-06-15T06:49:00,75s,12.10
2023-06-15T06:50:00,75s,12.02
2023-06-15T06:51:00,75s,11.95
2023-06-15T06:52:00,75s,11.87
2023-06-15T06:53:00,75s,11.74
2023-06-15T06:54:00,75s,3.18
2023-06-15T06:55:00,75s,3.15
2023-06-15T06:56:00,75s,3.16
2023-06-15T06:57:00,75s,2.98
2023-06-15T06:58:00,75s,2.99
2023-06-15T06:59:00,75s,13.43
2023-06-15T07:00:00,75s,13.45
2023-06-15T07:01:00,75s,13.44
2023-06-15T07:02:00,75s,13.50
2023-06-15T07:03:00,75s,13.54
2023-06-15T07:04:00,75s,14.05
2023-06-15T07:05:00,75s,13.48
2023-06-15T07:06:00,75s,13.47
2023-06-15T07:07:00,75s,13.48
2023-06-15T07:08:00,75s,13.63
2023-06-15T07:09:00,75s,13.39
2023-06-15T07:10:00,75s,13.39
2023-06-15T07:11:00,75s,3.22
2023-06-15T07:12:00,75s,3.21
2023-06-15T07:13:00,75s,3.47
2023-06-15T07:14:00,75s,3.67
2023-06-15T07:15:00,75s,3.18
2023-06-15T07:16:00,75s,3.09
2023-06-15T07:17:00,75s,3.25
2023-06-15T07:18:00,75s,3.26
2023-06-15T07:19:00,75s,3.25
2023-06-15T07:20:00,75s,3.24
2023-06-15T07:21:00,75s,13.76
2023-06-15T07:22:00,75s,13.40
2023-06-15T07:23:00,75s,13.35
2023-06-15T07:24:00,75s,13.64
2023-06-15T07:25:00,75s,13.42
2023-06-15T07:26:00,75s,13.35
2023-06-15T07:27:00,75s,13.31
2023-06-15T07:28:00,75s,13.37
2023-06-15T07:29:00,75s,13.42
2023-06-15T07:30:00,75s,13.34
2023-06-15T07:31:00,75s,13.30
2023-06-15T07:32:00,75s,13.28
2023-06-15T07:33:00,75s,13.27
2023-06-15T07:34:00,75s,13.26
2023-06-15T07:35:00,75s,13.62
2023-06-15T07:36:00,75s,13.39
2023-06-15T07:37:00,75s,13.36
2023-06-15T07:38:00,75s,13.31
2023-06-15T07:39:00,75s,13.36
2023-06-15T07:40:00,75s,13.38
2023-06-15T07:41:00,75s,3.20
2023-06-15T07:42:00,75s,3.12
2023-06-15T07:43:00,75s,3.08
2023-06-15T07:44:00,75s,3.02
2023-06-15T07:45:00,75s,3.04
2023-06-15T07:46:00,75s,3.13
2023-06-15T07:47:00,75s,3.12
2023-06-15T07:48:00,75s,3.20
2023-06-15T07:49:00,75s,3.20
2023-06-15T07:50:00,75s,12.94
2023-06-15T07:51:00,75s,13.11
2023-06-15T07:52:00,75s,13.18
2023-06-15T07:53:00,75s,13.16
2023-06-15T07:54:00,75s,13.20
2023-06-15T07:55:00,75s,13.11
2023-06-15T07:56:00,75s,13.43
2023-06-15T07:57:00,75s,13.08
2023-06-15T07:58:00,75s,13.05
2023-06-15T07:59:00,75s,13.06
2023-06-15T08:00:00,75s,13.06
2023-06-15T08:01:00,75s,13.35
2023-06-15T08:02:00,75s,13.45
2023-06-15T08:03:00,75s,13.53
2023-06-15T08:04:00,75s,13.53
2023-06-15T08:05:00,75s,13.54
2023-06-15T08:06:00,75s,14.04
2023-06-15T08:07:00,75s,13.67
2023-06-15T08:08:00,75s,13.73
2023-06-15T08:09:00,75s,13.79
2023-06-15T08:10:00,75s,13.80
2023-06-15T08:11:00,75s,13.81
2023-06-15T08:12:00,75s,13.81
2023-06-15T08:13:00,75s,13.86
2023-06-15T08:14:00,75s,13.90
2023-06-15T08:15:00,75s,13.98
2023-06-15T08:16:00,75s,14.31
2023-06-15T08:17:00,75s,19.58
2023-06-15T08:18:00,75s,19.52
2023-06-15T08:19:00,75s,19.54
2023-06-15T08:20:00,75s,19.56
2023-06-15T08:21:00,75s,19.62
2023-06-15T08:22:00,75s,19.85
2023-06-15T08:23:00,75s,19.65
2023-06-15T08:24:00,75s,19.55
2023-06-15T08:25:00,75s,19.53
2023-06-15T08:26:00,75s,19.50
2023-06-15T08:27:00,75s,19.53
2023-06-15T08:28:00,75s,19.42
2023-06-15T08:29:00,75s,19.82
2023-06-15T08:30:00,75s,19.85
2023-06-15T08:31:00,75s,19.89
2023-06-15T08:32:00,75s,19.94
2023-06-15T08:33:00,75s,19.99
2023-06-15T08:34:00,75s,20.01
2023-06-15T08:35:00,75s,20.05
2023-06-15T08:36:00,75s,20.11
2023-06-15T08:37:00,75s,19.96
2023-06-15T08:38:00,75s,19.94
2023-06-15T08:39:00,75s,19.84
2023-06-15T08:40:00,75s,19.88
2023-06-15T08:41:00,75s,19.81
2023-06-15T08:42:00,75s,19.81
2023-06-15T08:43:00,75s,19.85
2023-06-15T08:44:00,75s,19.67
2023-06-15T08:45:00,75s,19.68
2023-06-15T08:46:00,75s,21.77
2023-06-15T08:47:00,75s,19.72
2023-06-15T08:48:00,75s,20.04
2023-06-15T08:49:00,75s,20.88
2023-06-15T08:50:00,75s,22.54
2023-06-15T08:51:00,75s,24.12
2023-06-15T08:52:00,75s,25.57
2023-06-15T08:53:00,75s,25.61
2023-06-15T08:54:00,75s,25.61
2023-06-15T08:55:00,75s,25.46
2023-06-15T08:56:00,75s,25.53
2023-06-15T08:57:00,75s,25.45
2023-06-15T08:58:00,75s,25.44
2023-06-15T08:59:00,75s,25.75
2023-06-15T09:00:00,75s,25.56
2023-06-15T09:01:00,75s,25.53
2023-06-15T09:02:00,75s,25.44
2023-06-15T09:03:00,75s,25.25
2023-06-15T09:04:00,75s,25.29
2023-06-15T09:05:00,75s,25.22
2023-06-15T09:06:00,75s,25.01
2023-06-15T09:07:00,75s,25.80
2023-06-15T09:08:00,75s,26.18
2023-06-15T09:09:00,75s,26.15
2023-06-15T09:10:00,75s,26.14
2023-06-15T09:11:00,75s,26.09
2023-06-15T09:12:00,75s,25.95
2023-06-15T09:13:00,75s,25.92
2023-06-15T09:14:00,75s,25.68
2023-06-15T09:15:00,75s,23.57
2023-06-15T09:16:00,75s,22.45
2023-06-15T09:17:00,75s,21.59
2023-06-15T09:18:00,75s,21.90
2023-06-15T09:19:00,75s,22.23
2023-06-15T09:20:00,75s,22.24
2023-06-15T09:21:00,75s,24.36
2023-06-15T09:22:00,75s,23.41
2023-06-15T09:23:00,75s,23.34
2023-06-15T09:24:00,75s,21.41
2023-06-15T09:25:00,75s,19.94
2023-06-15T09:26:00,75s,19.93
2023-06-15T09:27:00,75s,20.02
2023-06-15T09:28:00,75s,20.07
2023-06-15T09:29:00,75s,20.00
2023-06-15T09:30:00,75s,19.95
2023-06-15T09:31:00,75s,20.05
2023-06-15T09:32:00,75s,20.06
2023-06-15T09:33:00,75s,20.02
2023-06-15T09:34:00,75s,19.89
2023-06-15T09:35:00,75s,20.84
2023-06-15T09:36:00,75s,19.90
2023-06-15T09:37:00,75s,19.80
2023-06-15T09:38:00,75s,19.93
2023-06-15T09:39:00,75s,19.86
2023-06-15T09:40:00,75s,19.85
2023-06-15T09:41:00,75s,19.81
2023-06-15T09:42:00,75s,20.46
2023-06-15T09:43:00,75s,21.97
2023-06-15T09:44:00,75s,23.86
2023-06-15T09:45:00,75s,25.49
2023-06-15T09:46:00,75s,26.24
2023-06-15T09:47:00,75s,26.31
2023-06-15T09:48:00,75s,26.37
2023-06-15T09:49:00,75s,27.09
2023-06-15T09:50:00,75s,26.31
2023-06-15T09:51:00,75s,26.12
2023-06-15T09:52:00,75s,26.51
2023-06-15T09:53:00,75s,26.34
2023-06-15T09:54:00,75s,26.32
2023-06-15T09:55:00,75s,26.44
2023-06-15T09:56:00,75s,26.73
2023-06-15T09:57:00,75s,26.22
2023-06-15T09:58:00,75s,26.24
2023-06-15T09:59:00,75s,26.30
2023-06-15T10:00:00,75s,26.45
2023-06-15T10:01:00,75s,26.85
2023-06-15T10:02:00,75s,26.78
2023-06-15T10:03:00,75s,26.57
2023-06-15T10:04:00,75s,26.50
2023-06-15T10:05:00,75s,26.63
2023-06-15T10:06:00,75s,26.60
2023-06-15T10:07:00,75s,26.72
2023-06-15T10:08:00,75s,27.73
2023-06-15T10:09:00,75s,27.26
2023-06-15T10:10:00,75s,27.32
2023-06-15T10:11:00,75s,27.39
2023-06-15T10:12:00,75s,27.40
2023-06-15T10:13:00,75s,27.26
2023-06-15T10:14:00,75s,27.39
2023-06-15T10:15:00,75s,27.27
2023-06-15T10:16:00,75s,27.40
2023-06-15T10:17:00,75s,27.53
2023-06-15T10:18:00,75s,27.10
2023-06-15T10:19:00,75s,26.98
2023-06-15T10:20:00,75s,26.67
2023-06-15T10:21:00,75s,24.57
2023-06-15T10:22:00,75s,21.68
2023-06-15T10:23:00,75s,20.75
2023-06-15T10:24:00,75s,20.95
2023-06-15T10:25:00,75s,20.62
2023-06-15T10:26:00,75s,20.71
2023-06-15T10:27:00,75s,20.50
2023-06-15T10:28:00,75s,20.49
2023-06-15T10:29:00,75s,20.73
2023-06-15T10:30:00,75s,20.46
2023-06-15T10:31:00,75s,20.51
2023-06-15T10:32:00,75s,20.63
2023-06-15T10:33:00,75s,20.61
2023-06-15T10:34:00,75s,20.64
2023-06-15T10:35:00,75s,20.66
2023-06-15T10:36:00,75s,21.92
2023-06-15T10:37:00,75s,23.66
2023-06-15T10:38:00,75s,25.36
2023-06-15T10:39:00,75s,26.72
2023-06-15T10:40:00,75s,26.80
2023-06-15T10:41:00,75s,26.71
2023-06-15T10:42:00,75s,26.71
2023-06-15T10:43:00,75s,26.75
2023-06-15T10:44:00,75s,26.85
2023-06-15T10:45:00,75s,26.97
2023-06-15T10:46:00,75s,26.88
2023-06-15T10:47:00,75s,26.86
2023-06-15T10:48:00,75s,26.82
2023-06-15T10:49:00,75s,26.90
2023-06-15T10:50:00,75s,26.88
2023-06-15T10:51:00,75s,27.49
2023-06-15T10:52:00,75s,26.85
2023-06-15T10:53:00,75s,26.76
2023-06-15T10:54:00,75s,26.75
2023-06-15T10:55:00,75s,26.82
2023-06-15T10:56:00,75s,26.69
2023-06-15T10:57:00,75s,27.12
2023-06-15T10:58:00,75s,26.65
2023-06-15T10:59:00,75s,26.76
2023-06-15T11:00:00,75s,26.81
2023-06-15T11:01:00,75s,26.88
2023-06-15T11:02:00,75s,27.06
2023-06-15T11:03:00,75s,26.85
2023-06-15T11:04:00,75s,26.92
2023-06-15T11:05:00,75s,27.10
2023-06-15T11:06:00,75s,27.03
2023-06-15T11:07:00,75s,26.91
2023-06-15T11:08:00,75s,26.80
2023-06-15T11:09:00,75s,27.06
2023-06-15T11:10:00,75s,26.83
2023-06-15T11:11:00,75s,26.92
2023-06-15T11:12:00,75s,27.01
2023-06-15T11:13:00,75s,26.96
2023-06-15T11:14:00,75s,26.19
2023-06-15T11:15:00,75s,21.08
2023-06-15T11:16:00,75s,24.22
2023-06-15T11:17:00,75s,23.67
2023-06-15T11:18:00,75s,23.28
2023-06-15T11:19:00,75s,22.81
2023-06-15T11:20:00,75s,21.37
2023-06-15T11:21:00,75s,21.01
2023-06-15T11:22:00,75s,20.90
2023-06-15T11:23:00,75s,21.18
2023-06-15T11:24:00,75s,20.98
2023-06-15T11:25:00,75s,20.92
2023-06-15T11:26:00,75s,20.78
2023-06-15T11:27:00,75s,20.81
2023-06-15T11:28:00,75s,29.65
2023-06-15T11:29:00,75s,36.26
2023-06-15T11:30:00,75s,31.84
2023-06-15T11:31:00,75s,36.07
2023-06-15T11:32:00,75s,35.80
2023-06-15T11:33:00,75s,27.60
2023-06-15T11:34:00,75s,27.49
2023-06-15T11:35:00,75s,27.60
2023-06-15T11:36:00,75s,27.53
2023-06-15T11:37:00,75s,27.64
2023-06-15T11:38:00,75s,27.77
2023-06-15T11:39:00,75s,27.73
2023-06-15T11:40:00,75s,27.51
2023-06-15T11:41:00,75s,27.56
2023-06-15T11:42:00,75s,27.84
2023-06-15T11:43:00,75s,27.91
2023-06-15T11:44:00,75s,27.66
2023-06-15T11:45:00,75s,28.18
2023-06-15T11:46:00,75s,27.54
2023-06-15T11:47:00,75s,27.56
2023-06-15T11:48:00,75s,27.39
2023-06-15T11:49:00,75s,27.17
2023-06-15T11:50:00,75s,27.20
2023-06-15T11:51:00,75s,27.04
2023-06-15T11:52:00,75s,27.06
2023-06-15T11:53:00,75s,27.02
2023-06-15T11:54:00,75s,27.23
2023-06-15T11:55:00,75s,27.08
2023-06-15T11:56:00,75s,26.98
2023-06-15T11:57:00,75s,26.96
2023-06-15T11:58:00,75s,27.23
2023-06-15T11:59:00,75s,27.15
2023-06-15T12:00:00,75s,27.16
2023-06-15T12:01:00,75s,27.31
2023-06-15T12:02:00,75s,27.60
2023-06-15T12:03:00,75s,27.05
2023-06-15T12:04:00,75s,27.51
2023-06-15T12:05:00,75s,27.41
2023-06-15T12:06:00,75s,27.63
2023-06-15T12:07:00,75s,27.80
2023-06-15T12:08:00,75s,27.68
2023-06-15T12:09:00,75s,27.86
2023-06-15T12:10:00,75s,27.56
2023-06-15T12:11:00,75s,27.43
2023-06-15T12:12:00,75s,27.39
2023-06-15T12:13:00,75s,26.77
2023-06-15T12:14:00,75s,25.30
2023-06-15T12:15:00,75s,24.07
2023-06-15T12:16:00,75s,21.02
2023-06-15T12:17:00,75s,21.56
2023-06-15T12:18:00,75s,21.14
2023-06-15T12:19:00,75s,21.61
2023-06-15T12:20:00,75s,20.76
2023-06-15T12:21:00,75s,20.89
2023-06-15T12:22:00,75s,27.24
2023-06-15T12:23:00,75s,22.59
2023-06-15T12:24:00,75s,24.55
2023-06-15T12:25:00,75s,27.68
2023-06-15T12:26:00,75s,27.85
2023-06-15T12:27:00,75s,27.79
2023-06-15T12:28:00,75s,27.94
2023-06-15T12:29:00,75s,28.02
2023-06-15T12:30:00,75s,28.10
2023-06-15T12:31:00,75s,28.44
2023-06-15T12:32:00,75s,28.34
2023-06-15T12:33:00,75s,28.37
2023-06-15T12:34:00,75s,28.41
2023-06-15T12:35:00,75s,28.59
2023-06-15T12:36:00,75s,29.12
2023-06-15T12:37:00,75s,28.52
2023-06-15T12:38:00,75s,28.46
2023-06-15T12:39:00,75s,28.55
2023-06-15T12:40:00,75s,28.99
2023-06-15T12:41:00,75s,28.85
2023-06-15T12:42:00,75s,28.66
2023-06-15T12:43:00,75s,28.58
2023-06-15T12:44:00,75s,28.45
2023-06-15T12:45:00,75s,28.60
2023-06-15T12:46:00,75s,28.27
2023-06-15T12:47:00,75s,28.39
2023-06-15T12:48:00,75s,28.25
2023-06-15T12:49:00,75s,28.01
2023-06-15T12:50:00,75s,28.01
2023-06-15T12:51:00,75s,28.13
2023-06-15T12:52:00,75s,28.79
2023-06-15T12:53:00,75s,28.31
2023-06-15T12:54:00,75s,28.05
2023-06-15T12:55:00,75s,28.23
2023-06-15T12:56:00,75s,28.05
2023-06-15T12:57:00,75s,28.13
2023-06-15T12:58:00,75s,28.42
2023-06-15T12:59:00,75s,28.39
2023-06-15T13:00:00,75s,28.64
2023-06-15T13:01:00,75s,28.69
2023-06-15T13:02:00,75s,28.34
2023-06-15T13:03:00,75s,28.37
2023-06-15T13:04:00,75s,28.46
2023-06-15T13:05:00,75s,28.32
2023-06-15T13:06:00,75s,27.95
2023-06-15T13:07:00,75s,28.39
2023-06-15T13:08:00,75s,28.42
2023-06-15T13:09:00,75s,28.72
2023-06-15T13:10:00,75s,28.64
2023-06-15T13:11:00,75s,28.24
2023-06-15T13:12:00,75s,27.87
2023-06-15T13:13:00,75s,23.00
2023-06-15T13:14:00,75s,28.39
2023-06-15T13:15:00,75s,27.80
2023-06-15T13:16:00,75s,27.87
2023-06-15T13:17:00,75s,23.49
2023-06-15T13:18:00,75s,25.66
2023-06-15T13:19:00,75s,27.51
2023-06-15T13:20:00,75s,28.13
2023-06-15T13:21:00,75s,28.08
2023-06-15T13:22:00,75s,28.76
2023-06-15T13:23:00,75s,28.33
2023-06-15T13:24:00,75s,28.22
2023-06-15T13:25:00,75s,27.87
2023-06-15T13:26:00,75s,28.01
2023-06-15T13:27:00,75s,28.36
2023-06-15T13:28:00,75s,28.71
2023-06-15T13:29:00,75s,28.30
2023-06-15T13:30:00,75s,28.56
2023-06-15T13:31:00,75s,28.45